This demonstration page uses our WeatherBlox Daily Observations layout. Learn more.

Left ArrowRight Arrow

39.01783, -85.05884

Hourly Observations for January 29, 2022

Temp ( °F °C ) Dew Point ( °F °C ) Humidity (%) Winds ( mph kmh ) Pressure ( in mb ) Visibility ( mi km ) Precip ( " mm )
12:52 am 00:52 Mostly Clear 11 -11.7 5 -15 77 77 N 10 17 30.27 1025 10 16 0.00 0.00
1:00 am 01:00 Mostly Cloudy 11 -11.7 5 -15 77 77 N 8 13 30.32 1027 10 16 0.00 0.00
1:52 am 01:52 Mostly Cloudy 13 -10.6 8 -13.3 81 81 N 8 13 30.26 1025 7 11 0.00 0.00
2:23 am 02:23 Mostly Cloudy with Light Snow 13 -10.6 8 -13.3 81 81 N 9 15 30.31 1026 6 10 0.00 0.00
2:52 am 02:52 Mostly Cloudy with Light Snow 13 -10.6 8 -13.3 81 81 NNW 6 9 30.26 1025 4 6 0.00 0.00
3:52 am 03:52 Mostly Cloudy with Light Snow 13 -10.6 9 -12.8 84 84 NW 3 6 30.27 1025 6 10 0.00 0.00
4:17 am 04:17 Partly Cloudy with Scattered Snow Showers 11 -11.7 7 -13.9 84 84 WNW 3 6 30.32 1027 6 10 0.00 0.00
4:23 am 04:23 Partly Cloudy with Scattered Snow Showers 12 -11.1 8 -13.3 84 84 NW 5 7 30.32 1027 5 8 0.00 0.00
4:47 am 04:47 Clear with Light Snow 9 -13 5 -15 85 85 WNW 5 7 30.33 1027 7 11 0.00 0.00
4:52 am 04:52 Clear 8 -13.3 4 -15.6 83 83 WNW 6 9 30.27 1025 7 11 0.00 0.00
5:52 am 05:52 Clear 8 -13.3 3 -16.1 80 80 NW 7 11 30.28 1026 10 16 0.00 0.00
6:52 am 06:52 Clear 5 -15 1 -17.2 83 83 WNW 3 6 30.29 1026 8 13 0.00 0.00
7:52 am 07:52 Mostly Sunny 4 -15.6 1 -17.2 88 88 WNW 3 6 30.31 1026 7 11 0.00 0.00
8:52 am 08:52 Partly Cloudy with Mist and Fog 4 -15.6 2 -16.7 91 91 W 3 6 30.32 1027 5 8 0.00 0.00
9:52 am 09:52 Hazy 10 -12.2 5 -15 80 80 W 3 6 30.32 1027 6 10 0.00 0.00
10:52 am 10:52 Mostly Sunny 14 -10 6 -14.4 71 71 Calm 30.31 1026 9 14 0.00 0.00
11:52 am 11:52 Partly Cloudy 17 -8.3 5 -15 59 59 WNW 7 11 30.30 1026 10 16 0.00 0.00
12:52 pm 12:52 Mostly Cloudy 19 -7.2 7 -13.9 59 59 WNW 3 6 30.26 1025 10 16 0.00 0.00
1:52 pm 13:52 Mostly Cloudy 21 -6.1 7 -13.9 54 54 Calm 30.22 1023 10 16 0.00 0.00
2:52 pm 14:52 Partly Cloudy 21 -6.1 7 -13.9 54 54 S 6 9 30.19 1022 10 16 0.00 0.00
3:52 pm 15:52 Cloudy 22 -5.6 8 -13.3 55 55 SSW 6 9 30.16 1021 10 16 0.00 0.00
4:52 pm 16:52 Mostly Cloudy 22 -5.6 9 -12.8 57 57 S 10 17 30.14 1021 10 16 0.00 0.00
5:52 pm 17:52 Mostly Cloudy 22 -5.6 8 -13.3 55 55 SSW 7 11 30.14 1021 10 16 0.00 0.00
6:52 pm 18:52 Cloudy 22 -5.6 10 -12.2 60 60 S 10 17 30.11 1020 10 16 0.00 0.00
7:52 pm 19:52 Mostly Cloudy 20 -6.7 10 -12.2 65 65 S 8 13 30.11 1020 10 16 0.00 0.00
8:52 pm 20:52 Cloudy 20 -6.7 10 -12.2 65 65 S 7 11 30.10 1019 10 16 0.00 0.00
9:52 pm 21:52 Partly Cloudy 16 -8.9 8 -13.3 71 71 S 8 13 30.08 1019 10 16 0.00 0.00
10:52 pm 22:52 Partly Cloudy 17 -8.3 8 -13.3 68 68 S 6 9 30.07 1018 10 16 0.00 0.00
11:52 pm 23:52 Mostly Cloudy 18 -7.8 9 -12.8 68 68 S 7 11 30.04 1017 10 16 0.00 0.00

Powered by AerisWeather